Location: ??????
(55.2000°N, 38.3000°E)
Time: 08:31:58
(UTC+00:00)

Cosmos 2369 Rocket - Pass Details

Date: 15 November 2025
Orbit: 826 x 853 km, 71.0° (Epoch: 14 December)

Event Time Altitude Azimuth Distance (km) Brightness Sun altitude
Exits shadow 00:18:12 24° 38° (NE) 1,690 4.2 -39.2°
Drops below altitude 10° 00:22:13 10° 82° (E) 2,480 5.3 -38.7°
Sets 00:25:08 0° 96° (E) 3,416 6.1 -38.3°
